Погода в Житомире

Украина / Житомирская область     50°15′16″N   28°39′31″E
темп.,
°C
ветер,
м/с
пор.,
м/с
влажн.,
%
обл.,
%
осадки,
мм/ч
давл.,
гПа
погр.,
м
13 мая, чт
чт1300:00+7вюв229158 0.0 101228
03:00+6ююв2294100 0.0 101132
06:00+5ююв359595 0.0 1010100
09:00+11ююв577043 0.0 1009600
12:00+15ююв7855100 0.0 10081554
15:00+10ююв71177100 0.0 1008789
18:00+13ююв7137688 0.1 1007969
21:00+11ююв71483100 0.1 1007638
14 мая, пт
пт1400:00+10ююв5128799 0.0 1007494
03:00+9ююв4109398 0.0 1007344
06:00+9ююв4119135 0.0 1006293
09:00+14ююв577379 0.0 1006491
12:00+18ю5666100 0.1 10061287
15:00+13ю5992100 2.8 1006508
18:00+13ююз4893100 2.8 1006319
21:00+12ююз3794100 3.3 1006193
15 мая, сб
сб1500:00+10юз4994100 0.0 1007218
03:00+8юз379499 0.0 1008131
06:00+10ююз3693100 0.0 1008187
09:00+10юз3596100 1.3 1009333
12:00+15з357353 0.4 10101044
15:00+15з577720 0.8 1011698
18:00+17з356949 0.4 10111077
21:00+12зюз33895 0.5 101232
16 мая, вс
вс1600:00+10ююз22885 0.0 101210
03:00+9ююв22895 0.0 101313
06:00+10юв33945 0.0 101352
09:00+16юв457367 0.0 1012373
12:00+20юв676096 0.1 10111254
15:00+21юв6758100 0.6 10101531
18:00+19юв4772100 0.9 1009676
21:00+15вюв4687100 1.3 100894
17 мая, пн
пн1700:00+13вюв3793100 0.1 1008112
03:00+14в2294100 2.4 100740
06:00+14в51197100 0.9 1006278
09:00+14всв1297100 6.7 100689
12:00+14ссз2498100 4.6 1004211
15:00+14с2395100 14.8 1005184
18:00+15зсз138785 0.3 1005451
21:00+14з3596100 0.4 1004139